Stations météo

réclame
Mon MeteoGroup
Langres, France (7283): Température de l'air & dewpoint: 14.11.2017 12:00:00 - 20.11.2017 12:00:00 (CET)Langres, France (7283): Température de l'air 5cm: 14.11.2017 12:00:00 - 20.11.2017 12:00:00 (CET)Langres, France (7283): Vitesse du vent & gusts: 14.11.2017 12:00:00 - 20.11.2017 12:00:00 (CET)Langres, France (7283): Direction du vent: 14.11.2017 12:00:00 - 20.11.2017 12:00:00 (CET)Langres, France (7283): reduced air pressure: 14.11.2017 12:00:00 - 20.11.2017 12:00:00 (CET)Langres, France (7283): visibility: 14.11.2017 12:00:00 - 20.11.2017 12:00:00 (CET)Langres, France (7283): Ensoleillement: 14.11.2017 12:00:00 - 20.11.2017 12:00:00 (CET)Langres, France (7283): Quantités de précipitations: 14.11.2017 12:00:00 - 20.11.2017 12:00:00 (CET)
Date & Time tt [°C] td [°C] tt 5cm [°C] ff [km/h] ff [knt] fx [km/h] fx [knt] dd ppp [hPa] vv [km] sd [min] rr [mm]
20.11.2017 12:00:00 2,9 1,9 3,8 9 5 16 8 SW 1025,5 9 0 0,0
20.11.2017 11:00:00 1,2 0,3 2,4 9 5 16 9 SW 1026,3 5 1 0,0
20.11.2017 10:00:00 0,3 -0,7 0,2 9 5 15 8 SW 1026,4 1,6 52 0,0
20.11.2017 09:00:00 -0,1 -1,1 -1,5 9 5 13 7 SW 1026,2 14 7 0,0
20.11.2017 08:00:00 -0,4 -1,1 -1,5 8 4 16 9 SW 1026,5 14 0 0,0
20.11.2017 07:00:00 -0,8 -1,5 -2,1 9 5 18 10 SW 1026,3 0,2 0 0,0
20.11.2017 06:00:00 -1,4 -2,2 -4,9 7 4 12 7 SSW 1026,2 0,4 0 0,0
20.11.2017 05:00:00 -1,4 -3,0 -6,7 5 3 11 6 SW 1026,3 1,0 0 0,0
20.11.2017 04:00:00 -0,7 -2,8 -6,5 5 3 9 5 SW 1026,2 20 0 0,0
20.11.2017 03:00:00 -0,5 -1,9 -6,6 4 2 7 4 SW 1026,7 20 0 0,0
20.11.2017 02:00:00 -0,3 -1,6 -6,1 4 2 7 4 W 1026,5 20 0 0,0
20.11.2017 01:00:00 0,1 -1,3 -5,4 2 1 7 4 SSW 1027,0 11 0 0,0
20.11.2017 00:00:00 0,7 -1,1 -3,1 2 1 5 3 SW 1026,7 10 0 0,0
19.11.2017 23:00:00 1,3 -0,3 -1,2 3 2 7 4 WSW 1026,8 20 0 0,0
19.11.2017 22:00:00 1,9 0,4 -2,4 4 2 7 4 WNW 1026,9 20 0 0,0
19.11.2017 21:00:00 1,6 0,3 -3,9 4 2 7 4 W 1026,7 20 0 0,0
19.11.2017 20:00:00 1,8 0,6 -3,7 2 1 5 3 WNW 1026,0 15 0 0,0
19.11.2017 19:00:00 2,1 0,6 -3,6 3 1 6 3 WNW 1025,5 20 0 0,0
19.11.2017 18:00:00 1,7 -0,1 -3,5 4 2 6 4 W 1025,1 18 0 0,0
19.11.2017 17:00:00 3,4 0,1 -1,4 0 0 10 6 N 1024,1 20 0 0,0
19.11.2017 16:00:00 5,2 1,9 5,6 5 3 15 8 NW 1023,4 20 20 0,0
19.11.2017 15:00:00 6,3 1,6 7,5 6 3 19 10 NNW 1022,9 20 10 0,0
19.11.2017 14:00:00 6,1 1,6 7,3 9 5 16 9 W 1022,8 20 0 0,0
19.11.2017 13:00:00 6,0 1,1 6,2 6 4 14 8 NNW 1022,7 20 13 0,0
19.11.2017 12:00:00 5,5 2,3 6,6 4 2 9 5 NNW 1022,8 20 5 0,0
19.11.2017 11:00:00 4,8 2,8 5,5 7 4 19 11 NNW 1022,9 19 1 0,0
19.11.2017 10:00:00 5,0 4,3 4,9 7 4 17 9 NW 1022,2 16 0 0,2
19.11.2017 09:00:00 4,7 4,0 4,5 9 5 21 11 W 1021,7 2,1 0 0,0
19.11.2017 08:00:00 4,5 3,6 4,4 12 6 29 16 W 1020,9 4,5 0 0,2
19.11.2017 07:00:00 4,5 3,8 4,2 15 8 33 18 W 1020,6 3,0 0 0,2
19.11.2017 06:00:00 4,2 3,5 3,7 16 8 29 15 WSW 1020,2 4,4 0 0,4
19.11.2017 05:00:00 3,8 2,8 3,5 18 10 41 22 WSW 1020,3 3,3 0 1,6
19.11.2017 04:00:00 3,7 2,4 3,2 23 13 40 21 WSW 1020,3 11 0 0,2
19.11.2017 03:00:00 3,5 2,0 3,1 23 13 42 23 WSW 1020,8 5 0 0,2
19.11.2017 02:00:00 3,8 0,5 3,3 20 11 34 18 WSW 1021,5 20 0 0,0
19.11.2017 01:00:00 3,5 0,2 3,3 10 6 21 11 SW 1022,6 20 0 0,0
19.11.2017 00:00:00 3,4 -0,1 2,9 10 5 22 12 SW 1023,2 20 0 0,0
18.11.2017 23:00:00 3,1 -0,2 2,5 11 6 20 11 SW 1023,7 20 0 0,0
18.11.2017 22:00:00 2,9 -0,6 2,3 11 6 20 11 SW 1024,4 20 0 0,0
18.11.2017 21:00:00 2,6 -0,7 1,2 8 4 17 9 SSW 1024,6 20 0 0,0
18.11.2017 20:00:00 2,8 -1,0 1,4 8 4 16 9 SW 1024,9 20 0 0,0
18.11.2017 19:00:00 3,3 -0,9 2,7 8 4 16 9 SW 1025,3 20 0 0,0
18.11.2017 18:00:00 3,2 -1,2 2,4 4 2 12 7 SW 1025,0 20 0 0,0
18.11.2017 17:00:00 3,6 -1,4 3,0 7 4 13 7 SW 1025,1 20 0 0,0
18.11.2017 16:00:00 4,2 -1,6 4,7 7 4 19 10 WSW 1025,3 20 14 0,0
18.11.2017 15:00:00 4,7 -1,5 5,7 7 4 15 8 WNW 1025,4 20 11 0,0
18.11.2017 14:00:00 4,1 -1,3 5,4 7 4 21 11 W 1025,8 20 0 0,0
18.11.2017 13:00:00 3,7 -1,7 5,2 7 4 21 11 WNW 1026,3 20 0 0,0
18.11.2017 12:00:00 3,7 -0,9 4,9 7 4 19 11 WNW 1026,6 20 0 0,0
18.11.2017 11:00:00 3,6 -0,2 4,6 6 3 17 9 W 1026,4 20 0 0,0
18.11.2017 10:00:00 3,4 2,1 3,7 5 3 9 5 WSW 1026,2 9 0 0,0
18.11.2017 09:00:00 3,0 1,7 3,1 5 3 7 4 SW 1026,0 12 0 0,0
18.11.2017 08:00:00 2,8 1,6 2,9 0 0 4 2 N 1025,9 12 0 0,0
18.11.2017 07:00:00 2,7 1,7 2,8 0 0 7 4 N 1026,0 11 0 0,0
18.11.2017 06:00:00 2,8 1,9 2,9 0 0 8 4 N 1025,8 7 0 0,0
18.11.2017 05:00:00 3,0 2,3 3,0 2 1 14 7 NW 1026,0 4,4 0 0,0
18.11.2017 04:00:00 3,0 2,3 3,1 4 2 11 6 N 1026,1 0,5 0 0,0
18.11.2017 03:00:00 2,9 2,2 3,0 5 3 14 8 N 1026,3 0,3 0 0,0
18.11.2017 02:00:00 3,0 2,3 3,1 8 4 16 8 N 1026,3 0,6 0 0,0
18.11.2017 01:00:00 3,4 2,7 3,5 5 3 14 7 N 1026,4 0,3 0 0,0
18.11.2017 00:00:00 3,5 2,8 3,6 5 3 14 8 N 1026,4 0,2 0 0,0
17.11.2017 23:00:00 3,5 2,8 3,6 7 4 16 9 N 1026,7 0,2 0 0,0
17.11.2017 22:00:00 3,6 2,9 3,7 6 4 13 7 N 1026,6 0,5 0 0,0
17.11.2017 21:00:00 3,7 3,0 3,8 9 5 18 10 N 1026,6 0,5 0 0,0
17.11.2017 20:00:00 3,9 3,2 4,0 9 5 18 10 NNE 1026,6 0,2 0 0,0
17.11.2017 19:00:00 4,4 3,5 4,4 7 4 19 11 NNE 1026,0 2,2 0 0,0
17.11.2017 18:00:00 4,5 3,3 4,5 10 5 20 11 N 1026,4 4,2 0 0,0
17.11.2017 17:00:00 5,5 3,7 5,3 9 5 21 12 N 1025,9 9 0 0,0
17.11.2017 16:00:00 6,1 4,3 6,4 8 4 22 12 N 1025,7 7 0 0,0
17.11.2017 15:00:00 6,4 4,7 7,0 9 5 21 12 NNE 1025,6 9 0 0,0
17.11.2017 14:00:00 6,0 4,3 6,9 9 5 17 9 NNE 1026,0 7 1 0,0
17.11.2017 13:00:00 6,4 4,6 7,0 6 3 18 10 NNE 1025,9 11 0 0,0
17.11.2017 12:00:00 5,3 3,8 6,9 8 5 15 8 NNE 1026,6 8 0 0,0
17.11.2017 11:00:00 4,8 3,8 4,9 8 4 14 8 NNE 1027,0 8 0 0,0
17.11.2017 10:00:00 3,2 2,2 2,9 5 3 19 10 NE 1026,9 3,6 0 0,0
17.11.2017 09:00:00 2,4 0,5 1,5 9 5 19 10 NNE 1027,3 12 0 0,0
17.11.2017 08:00:00 1,7 0,2 -0,1 4 2 14 8 NE 1027,0 10 0 0,0
17.11.2017 07:00:00 1,4 0,1 0,3 8 4 15 8 NE 1026,8 12 0 0,0
17.11.2017 06:00:00 1,6 0,6 0,6 5 3 14 7 N 1026,8 7 0 0,0
17.11.2017 05:00:00 1,6 0,7 1,1 3 1 9 5 N 1026,5 5 0 0,0
17.11.2017 04:00:00 1,1 0,4 0,9 0 0 8 5 N 1026,7 1,9 0 0,0
17.11.2017 03:00:00 0,7 0,0 0,7 0 0 6 3 N 1026,8 0,1 0 0,0
17.11.2017 02:00:00 0,6 -0,1 0,4 0 0 6 3 N 1027,1 0,4 0 0,0
17.11.2017 01:00:00 0,7 0,0 0,6 2 1 6 3 NNE 1027,0 0,1 0 0,0
17.11.2017 00:00:00 0,5 -0,2 0,6 3 2 8 4 ENE 1027,1 0,1 0 0,0
16.11.2017 23:00:00 0,6 -0,1 0,6 2 1 6 3 ENE 1027,0 0,1 0 0,0
16.11.2017 22:00:00 0,5 -0,2 0,4 4 2 7 4 NE 1027,1 0,1 0 0,0
16.11.2017 21:00:00 0,4 -0,5 0,3 3 2 8 4 E 1027,0 0,1 0 0,0
16.11.2017 20:00:00 0,4 -0,5 -0,1 5 3 10 5 ENE 1026,7 0,2 0 0,0
16.11.2017 19:00:00 0,5 -0,6 -0,7 4 2 9 5 ENE 1026,4 2,2 0 0,0
16.11.2017 18:00:00 0,7 -0,9 -1,7 5 3 9 5 E 1026,0 3,5 0 0,0
16.11.2017 17:00:00 2,2 -0,4 0,7 6 3 8 5 E 1025,3 6 7 0,0
16.11.2017 16:00:00 3,9 0,8 5,1 5 3 12 7 E 1025,0 9 25 0,0
16.11.2017 15:00:00 4,4 0,7 6,5 4 2 9 5 E 1024,7 14 28 0,0
16.11.2017 14:00:00 4,0 0,3 6,9 5 3 11 6 ESE 1024,6 13 56 0,0
16.11.2017 13:00:00 2,7 0,9 6,0 6 4 11 6 E 1025,0 9 19 0,0
16.11.2017 12:00:00 2,3 1,6 4,9 0 0 9 5 N 1025,5 7 13 0,0
16.11.2017 11:00:00 0,9 0,2 1,1 4 2 10 5 E 1026,0 4,2 0 0,0
16.11.2017 10:00:00 -0,2 -0,9 0,1 6 3 10 6 E 1025,8 0,1 0 0,0
16.11.2017 09:00:00 -0,9 -1,6 -0,6 6 3 10 6 E 1025,7 0,1 0 0,0
16.11.2017 08:00:00 -1,2 -1,9 -1,2 2 1 7 4 NNE 1025,4 0,1 0 0,0
16.11.2017 07:00:00 -1,3 -2,1 -1,1 0 0 6 4 N 1025,2 0,1 0 0,0
16.11.2017 06:00:00 -0,8 -1,5 -0,8 0 0 7 4 N 1024,6 0,1 0 0,0
16.11.2017 05:00:00 -0,4 -1,1 -0,3 5 3 11 6 E 1024,6 0,1 0 0,0
16.11.2017 04:00:00 -0,5 -1,2 -0,5 6 3 11 6 E 1024,7 0,1 0 0,0
16.11.2017 03:00:00 -0,6 -1,3 -0,5 6 3 10 5 E 1025,0 0,1 0 0,0
16.11.2017 02:00:00 -0,4 -1,1 -0,6 8 4 16 9 E 1025,1 0,1 0 0,0
16.11.2017 01:00:00 -0,5 -1,3 -0,8 7 4 13 7 ENE 1025,2 0,1 0 0,0
16.11.2017 00:00:00 0,1 -0,9 -1,0 6 4 12 6 NNE 1025,2 0,1 0 0,0
15.11.2017 23:00:00 0,8 -0,5 -0,9 7 4 14 8 NNE 1025,2 3,8 0 0,0
15.11.2017 22:00:00 0,9 -0,4 -0,6 8 4 19 10 NNE 1025,6 4,5 0 0,0
15.11.2017 21:00:00 1,4 -0,2 0,1 11 6 19 10 NNE 1025,5 6 0 0,0
15.11.2017 20:00:00 2,0 -0,3 0,5 9 5 18 10 NNE 1025,7 12 0 0,0
15.11.2017 19:00:00 2,9 -0,9 0,5 4 2 20 11 NNE 1025,4 20 0 0,0
15.11.2017 18:00:00 3,6 -0,6 1,4 9 5 18 10 N 1025,2 20 0 0,0
15.11.2017 17:00:00 4,1 -0,3 2,1 7 4 22 12 NNE 1024,8 20 17 0,0
15.11.2017 16:00:00 5,2 0,2 6,9 13 7 21 11 N 1024,8 20 43 0,0
15.11.2017 15:00:00 5,7 -0,2 7,3 11 6 23 12 NNE 1024,9 20 48 0,0
15.11.2017 14:00:00 6,1 0,4 9,7 10 5 22 12 N 1025,1 20 60 0,0
15.11.2017 13:00:00 5,6 0,8 9,5 13 7 24 13 NNE 1025,6 20 60 0,0
15.11.2017 12:00:00 4,1 0,4 8,2 12 7 23 13 NNE 1026,4 19 60 0,0
15.11.2017 11:00:00 2,0 0,5 4,4 7 4 17 9 NE 1027,2 16 60 0,0
15.11.2017 10:00:00 -0,3 -1,0 -0,6 9 5 19 11 NNE 1027,6 0,8 9 0,0
15.11.2017 09:00:00 -1,3 -2,1 -2,3 5 3 18 10 NE 1028,0 0,2 0 0,0
15.11.2017 08:00:00 -1,2 -2,2 -2,9 8 4 16 9 NNE 1027,8 8 0 0,0
15.11.2017 07:00:00 -1,3 -2,7 -3,7 7 4 17 9 NNE 1027,5 15 0 0,0
15.11.2017 06:00:00 -0,4 -1,5 -4,0 9 5 15 8 N 1027,0 20 0 0,0
15.11.2017 05:00:00 -1,7 -2,7 -5,1 4 2 8 4 NNW 1027,5 20 0 0,0
15.11.2017 04:00:00 -2,0 -3,3 -3,8 5 3 13 7 NNE 1027,8 0,3 0 0,0
15.11.2017 03:00:00 -1,6 -2,6 -3,3 4 2 11 6 NE 1028,2 0,6 0 0,0
15.11.2017 02:00:00 -1,7 -2,5 -4,2 3 2 7 4 NE 1028,5 0,1 0 0,0
15.11.2017 01:00:00 -1,2 -2,5 -3,7 2 1 10 5 NW 1028,4 3,7 0 0,0
15.11.2017 00:00:00 -0,2 -0,9 -2,6 6 3 16 9 NNW 1028,5 14 0 0,0
14.11.2017 23:00:00 -0,1 -1,2 -4,1 3 2 7 4 NNW 1028,5 4,2 0 0,0
14.11.2017 22:00:00 1,0 -0,3 -3,0 4 2 8 4 N 1028,4 7 0 0,0
14.11.2017 21:00:00 1,5 -0,4 -1,5 3 1 13 7 NW 1028,5 10 0 0,0
14.11.2017 20:00:00 2,3 0,7 -1,9 7 4 16 9 NNE 1028,4 16 0 0,0
14.11.2017 19:00:00 1,9 -0,2 -1,8 0 0 14 8 N 1028,2 8 0 0,0
14.11.2017 18:00:00 3,2 1,2 0,7 7 4 15 8 NW 1027,7 16 0 0,0
14.11.2017 17:00:00 4,0 0,9 2,6 8 4 14 8 NNW 1027,2 20 25 0,0
14.11.2017 16:00:00 4,8 1,3 5,9 8 4 16 9 N 1026,7 20 32 0,0
14.11.2017 15:00:00 5,2 1,9 7,2 8 4 19 11 NNW 1026,4 20 45 0,0
14.11.2017 14:00:00 4,5 1,5 7,7 9 5 20 11 N 1026,4 20 29 0,0
14.11.2017 13:00:00 3,7 3,0 6,6 6 3 17 9 NNW 1027,0 9 18 0,0
14.11.2017 12:00:00 2,9 2,2 5,0 6 3 22 12 NNW 1027,3 2,8 11 0,0

tt = Température de l'air
td = dewpoint
tt 5cm = Température de l'air 5cm
ff = Vitesse du vent
fx = gusts
dd = Direction du vent
ppp = reduced air pressure
vv = visibility
sd = Ensoleillement
rr = Quantités de précipitations

stations d'obs. à proximité